This is the latest recevied weather packets stored in our database for station/object N1HRK. If no packets are shown the sender has not sent any weather packets the latest 10 day(s).
| Time | Temp. | Humidity | Pressure | Rain* | Wind** | Luminosity | Snow |
|---|---|---|---|---|---|---|---|
| 1777896123 | 11.67° C | 58% | 1012.5 hPa | 0 mm | - | - | - |
| 1777895523 | 11.11° C | 61% | 1012.6 hPa | 0 mm | - | - | - |
| 1777894924 | 10.56° C | 64% | 1012.5 hPa | 0 mm | - | - | - |
| 1777894324 | 10° C | 66% | 1012.4 hPa | 0 mm | - | - | - |
| 1777893723 | 9.44° C | 68% | 1012.4 hPa | 0 mm | - | - | - |
| 1777893123 | 8.89° C | 72% | 1012.3 hPa | 0 mm | - | - | - |
| 1777892523 | 8.33° C | 74% | 1012.2 hPa | 0 mm | - | - | - |
| 1777891923 | 8.33° C | 75% | 1012.2 hPa | 0 mm | - | - | - |
| 1777891324 | 7.78° C | 77% | 1012.2 hPa | 0 mm | - | - | - |
| 1777890723 | 7.78° C | 77% | 1012.3 hPa | 0 mm | - | - | - |
| 1777890154 | 7.22° C | 77% | 1012.2 hPa | 0 mm | - | - | - |
| 1777890123 | 7.78° C | 77% | 1012.2 hPa | 0 mm | - | - | - |
| 1777889524 | 7.22° C | 78% | 1012.2 hPa | 0 mm | - | - | - |
| 1777888924 | 7.22° C | 77% | 1012 hPa | 0 mm | - | - | - |
| 1777888353 | 7.78° C | 76% | 1011.9 hPa | 0 mm | - | - | - |
| 1777888323 | 7.78° C | 76% | 1011.8 hPa | 0 mm | - | - | - |
| 1777887723 | 7.78° C | 76% | 1011.7 hPa | 0 mm | - | - | - |
| 1777887153 | 7.22° C | 75% | 1011.7 hPa | 0 mm | - | - | - |
| 1777887123 | 7.78° C | 75% | 1011.7 hPa | 0 mm | - | - | - |
| 1777886524 | 7.22° C | 75% | 1011.7 hPa | 0 mm | - | - | - |
| 1777885924 | 6.67° C | 74% | 1011.7 hPa | 0 mm | - | - | - |
| 1777885324 | 7.22° C | 74% | 1011.6 hPa | 0 mm | - | - | - |
| 1777884753 | 6.67° C | 74% | 1011.6 hPa | 0 mm | - | - | - |
| 1777884723 | 6.67° C | 74% | 1011.6 hPa | 0 mm | - | - | - |
| 1777884124 | 6.67° C | 74% | 1011.6 hPa | 0 mm | - | - | - |
* Rain latest hour (hover to see other rain measurements)
** Current wind speed in m/s (hover to see current wind gust speed)